Weather Roundup
Issued by NWS

Home | Current Version | Previous Version | Text Only | Print | Product List | Glossary On
Versions: 1 2 3 4 5 6 7 8 9 10 11 12 13 14 15 16 17 18 19 20 21 22 23 24 25 26 27 28 29 30 31 32 33 34 35 36 37 38 39 40 41 42 43 44 45 46 47 48 49 50
000
NZUS93 KARX 211610
HRRWXR

CURRENT HOURLY OBSERVATIONS ACROSS
MUCH OF THE UPPER MISSISSIPPI VALLEY
NATIONAL WEATHER SERVICE LA CROSSE WI
1000 AM CST SUN DEC 21 2014


...SOUTHEAST MINNESOTA...


CITY           SKY/WX    TMP DP  RH WIND       PRES   REMARKS
ROCHESTER      FOG       34  33  96 S18       29.91F VSB 1/4 WCI  23
ROCHESTER/MAYO CLOUDY    34  34  99 SE10G18   29.90F WCI  26
WINONA         CLOUDY    36  34  93 SE7       29.97S FOG     WCI  30
AUSTIN         FOG       36  34  93 S13G18    29.89F VSB 1   WCI  27
ALBERT LEA     FOG       36  36 100 S15G25    29.86S VSB 1/2 WCI  26
DODGE CENTER   FOG       34  34 100 S16G23    29.87F VSB 3/4 WCI  23
PRESTON        FOG       33  33  99 S14       29.94R VSB 3/4 WCI  24
OWATONNA       FOG       36  34  93 S15       29.87F VSB 1/2 WCI  26
FARIBAULT      DRZL/FOG  36  34  93 SE14      29.87F VSB 1   WCI  27
$$

...ELSEWHERE IN MINNESOTA...


CITY           SKY/WX    TMP DP  RH WIND       PRES   REMARKS
MINNEAPOLIS    CLOUDY    34  32  92 SE13      29.87S FOG     WCI  25
INTNL FALLS    CLOUDY    29  27  92 S3        29.79S FOG
DULUTH         CLOUDY    31  28  89 SE13      29.85F FOG     WCI  21
RED WING       MIX PCPN  36  34  93 SE8       29.91F WCI  29
REDWOOD FALLS  FOG       34  33  96 SE14      29.78F VSB 1/4 WCI  25
MANKATO        CLOUDY    36  32  87 S12G17    29.84F VSB 3/4 WCI  27
WORTHINGTON    CLOUDY    34 -15  12 S13       29.77F VSB 3/4 WCI  25
FAIRMONT       CLOUDY    36  32  87 S17       29.82S WCI  25
$$

...SOUTHWEST WISCONSIN...


CITY           SKY/WX    TMP DP  RH WIND       PRES   REMARKS
LA CROSSE      CLOUDY    37  33  85 S12       29.99S FOG     WCI  29
PRAIRIE DU CHI CLOUDY    37  33  87 S6G17     30.03F FOG     WCI  32
BOSCOBEL       CLOUDY    37  33  85 S7G17     30.05F FOG     WCI  32
LONE ROCK      CLOUDY    40  32  73 SE10      30.07F HAZE    WCI  33
PLATTEVILLE    CLOUDY    35  34  96 S13       30.07F WCI  26
FORT MC COY    CLOUDY    34  33  96 S8G18     30.02S FOG     WCI  27
CAMP DOUGLAS   CLOUDY    32  32 100 SE8       30.03F FOG     WCI  25
VIROQUA        CLOUDY    33  33 100 S14       29.98F VSB 1/4 WCI  23
WIS DELLS      CLOUDY    33  32  96 S13       30.06F FOG     WCI  24
$$

...ELSEWHERE IN WISCONSIN...


CITY           SKY/WX    TMP DP  RH WIND       PRES   REMARKS
MILWAUKEE      CLOUDY    35  28  75 S9        30.16F WCI  28
MADISON        CLOUDY    33  31  92 S12       30.11R FOG     WCI  24
GREEN BAY      LGT SNOW  33  30  88 S8        30.12S FOG     WCI  26
EAU CLAIRE     CLOUDY    32  30  92 SE12      29.95F FOG     WCI  23
BLACK RVR FLS  CLOUDY    34  34  99 S6        30.00S FOG     WCI  29
MEDFORD        FOG       29  28  97 SE10G17   29.98S VSB 1   WCI  20
WAUSAU         CLOUDY    30  28  92 S9        30.02F FOG     WCI  22
WIS RAPIDS     CLOUDY    32  29  88 S9        30.05F FOG     WCI  24
MARSHFIELD     CLOUDY    31  29  92 SE10      30.00F FOG     WCI  22
RICE LAKE      SNOW      31  30  96 SE12      29.94S VSB 1/2 WCI  22
$$

...NORTHEAST IOWA...


CITY           SKY/WX    TMP DP  RH WIND       PRES   REMARKS
DECORAH        CLOUDY    36  36 100 S15G24    29.95F FOG     WCI  26
MASON CITY     CLOUDY    35  35 100 S21G28    29.90F FOG     WCI  24
CHARLES CITY   CLOUDY    36  36 100 S20       29.94S FOG     WCI  25
OELWEIN        CLOUDY    36  36 100 S17G24    29.99S FOG     WCI  25
$$

...ELSEWHERE IN IOWA...


CITY           SKY/WX    TMP DP  RH WIND       PRES   REMARKS
DES MOINES     CLOUDY    40  33  76 MISG      29.96S
IOWA CITY      CLOUDY    39  35  86 S12       30.07F WCI  32
FORT DODGE     CLOUDY    36  34  93 S16G23    29.87F VSB 1   WCI  26
$$

...NORTHERN ILLINOIS...


CITY           SKY/WX    TMP DP  RH WIND       PRES   REMARKS
CHICAGO-OHARE  CLOUDY    33  27  78 S12       30.19S WCI  24
CHICAGO-MIDWAY CLOUDY    35  27  72 S10       30.21S WCI  27
MOLINE         CLOUDY    38  33  82 S12       30.11S WCI  30
ROCKFORD       CLOUDY    34  30  85 S13       30.16F FOG     WCI  25
PEORIA         CLOUDY    38  31  76 S13       30.17S WCI  30
$$

NOTE: "FAIR" INDICATES FEW OR NO CLOUDS BELOW 12,000 FEET WITH NO
SIGNIFICANT WEATHER AND/OR OBSTRUCTIONS TO VISIBILITY. WIND
SPEEDS ARE IN MILES-PER-HOUR.



USA.gov is the U.S. government's official web portal to all federal, state and local government web resources and services.